Dewpoint
4 8 11 13 13 13 13 12 12 12 13 14 14 13 13 13 13 12 12 12 11 11 11 11 11 11 10 11 11 11 12 11 11 10 10 10 9 9 9 8 8 8 8
4 4 6 9 10 12 13 13 13 12 12 12 13 14 13 13 13 12 12 11 11 11 11 11 10 11 11 11 11 11 11 11 11 11 10 10 9 9 8 8 7 7 7
4 4 4 4 6 8 10 11 12 13 12 12 13 13 13 13 13 13 12 12 11 11 12 11 11 10 12 10 9 9 5 4 5 11 10 10 9 9 8 9 8 7 8
3 3 3 3 3 3 4 6 10 9 11 12 12 13 12 12 12 12 12 12 12 12 11 11 11 10 8 9 9 5 5 6 6 5 10 10 9 9 9 9 9 8 8
3 3 3 2 1 2 3 6 7 6 9 10 11 10 12 12 11 11 11 11 12 12 12 11 11 10 10 10 8 7 7 6 3 6 8 7 8 8 9 10 10 9 8
0 1 2 0 1 1 3 5 9 10 9 9 9 10 10 11 11 11 11 11 11 11 11 11 11 10 8 6 7 6 6 4 -1 -2 -1 1 7 6 8 8 8 8 8
-1 -1 0 1 0 1 2 4 6 9 11 10 11 11 10 10 10 10 10 10 10 10 10 11 10 6 7 7 5 3 -1 -2 -4 -5 -3 -1 0 6 8 6 8 9 8
-3 -2 -1 -1 1 0 1 3 4 4 6 7 8 8 8 9 10 10 10 10 10 10 10 9 8 9 8 5 -0 -3 -3 -3 -3 -4 -2 -2 -0 2 3 8 8 8 9
-2 -2 -2 -2 1 0 1 1 1 2 3 4 7 9 9 9 9 10 9 9 10 10 9 9 9 8 5 3 -2 -2 -2 -2 -2 -1 -1 -1 0 1 1 3 8 8 8
-1 -1 -2 -2 -1 0 0 1 2 2 3 3 4 4 7 9 9 10 10 10 9 9 8 7 6 5 1 -1 -1 -2 -2 -1 -1 -1 -1 -1 -0 -0 -0 5 7 7 7
-2 -2 -1 -1 -1 0 1 2 3 2 1 1 0 0 1 3 7 9 10 9 9 8 5 2 -1 -1 -0 1 -0 -1 -1 -1 -1 -1 -1 -1 -1 -1 -0 4 6 6 6
-3 -2 -0 3 3 3 3 3 2 1 1 0 1 1 1 2 4 5 5 4 2 -1 -1 -0 1 2 2 2 3 3 0 -0 -1 -1 -1 -1 -1 0 1 3 4 4 5
-3 -3 -4 -4 -1 2 3 3 3 3 2 2 2 1 1 2 2 1 0 -1 -1 -0 2 4 4 3 3 2 0 -0 -0 -0 -0 -1 -0 -0 0 0 1 1 3 3 3
-2 -3 -3 -4 -4 -4 -4 -3 1 3 3 2 2 1 2 2 1 1 0 3 4 4 4 5 5 2 0 0 0 0 -0 -0 -1 -1 -0 0 1 1 2 2 2 3 3
-2 -3 -3 -3 -3 -4 -4 -4 -2 1 3 3 3 3 3 4 3 2 3 5 5 5 4 1 0 1 0 0 0 -0 -0 -0 -0 -0 0 1 1 1 0 1 1 2 2
-3 -3 -3 -3 -3 -3 -2 -2 -2 -0 2 3 4 4 4 3 3 5 6 5 3 0 0 1 1 0 0 0 0 0 -0 -0 -0 0 1 1 1 0 -0 -0 0 1 2
-2 -2 -3 -3 -3 -2 -2 -2 -2 -0 1 3 4 4 5 5 5 4 2 1 0 1 1 1 1 0 0 0 0 0 0 0 1 0 -0 0 -0 -0 -1 -0 1 1 2
-2 -3 -3 -3 -2 -2 -2 -2 -0 1 1 2 4 4 4 3 2 1 1 1 1 1 1 1 1 0 -0 0 0 0 0 -0 -1 -0 -0 -0 -0 -0 -0 -0 1 1 1
-2 -2 -1 -2 -2 -3 -3 -2 -1 1 2 2 3 3 3 2 1 1 1 1 1 1 1 1 0 0 -0 -0 -1 -1 -0 -1 -1 -1 -1 -1 -1 -0 -0 -1 -2 -2 -1
-2 -2 -2 -3 -2 -1 -1 -2 -1 1 2 2 2 3 2 2 1 1 1 1 1 1 1 1 0 -0 -0 -0 -1 -1 -0 -1 -1 -1 -1 -1 -1 -2 -6 -13 -17 -20 -22
-1 -1 -1 -2 -2 -2 -1 -2 -1 1 1 3 2 3 2 2 1 1 1 1 1 1 1 0 -0 -0 -1 -1 -1 -2 -2 -1 -2 -3 -4 -8 -14 -19 -20 -19 -21 -23 -22
-0 -1 -1 -1 -1 0 -0 -1 -1 1 2 3 2 2 2 2 1 1 1 1 1 1 0 -0 -0 -1 -1 -1 -1 -1 -1 -7 -16 -22 -22 -21 -20 -21 -21 -23 -24 -24 -24
0 -1 -1 0 0 -1 -1 -0 1 2 3 3 2 2 2 2 1 1 1 1 0 -0 -0 -1 -1 -1 -1 -1 -1 -1 -2 -10 -17 -24 -25 -21 -19 -20 -21 -23 -26 -27 -25
1 0 -0 1 2 3 2 2 2 3 3 3 2 2 2 2 1 1 1 0 -0 -0 -0 -1 -1 -1 -1 -1 -1 -1 -3 -8 -18 -22 -26 -24 -20 -20 -21 -22 -24 -27 -25
1 1 1 1 2 3 3 3 2 3 3 2 2 2 2 1 1 1 0 -0 -0 -0 0 0 0 -1 -1 -1 -2 -2 -2 -7 -17 -18 -20 -22 -21 -22 -22 -22 -22 -23 -24
1 2 1 0 1 1 2 2 2 2 2 2 2 1 1 1 0 -0 -0 -0 0 1 1 0 -0 -1 -1 -1 -2 -2 -2 -11 -18 -18 -19 -18 -20 -23 -24 -24 -23 -23 -24
Wind_Speed
13 16 22 22 26 28 29 28 27 26 26 27 27 26 25 23 20 21 17 18 17 18 18 15 16 16 13 8 9 10 11 13 14 17 18 19 19 21 21 22 23 17 14
18 17 18 23 24 25 26 26 27 29 29 28 28 30 28 28 26 23 24 24 23 22 22 17 13 17 15 12 11 14 14 13 15 19 19 22 21 22 16 14 13 8 11
27 23 22 21 20 24 26 25 27 30 29 26 28 30 30 30 33 30 32 31 29 26 27 25 22 20 17 17 16 17 19 17 20 21 19 12 9 13 18 15 14 15 12
31 26 25 24 23 22 21 23 25 25 29 28 29 31 30 32 31 35 35 32 31 31 29 29 26 24 21 19 22 19 19 22 26 26 26 25 26 26 17 15 16 14 18
25 30 30 26 23 24 26 28 27 28 26 26 27 26 29 28 23 26 30 33 32 31 30 27 24 22 21 19 19 21 21 23 28 28 30 28 27 28 28 26 19 18 23
32 31 29 25 24 24 29 31 31 30 26 28 26 27 27 26 25 25 25 30 34 32 32 29 26 21 17 18 18 27 28 23 29 29 28 27 26 27 25 27 30 30 27
41 37 33 29 24 24 26 30 30 30 29 29 29 27 25 27 27 27 27 25 28 30 29 22 16 18 18 18 22 26 25 25 25 24 24 23 23 26 27 27 28 26 26
32 39 35 32 27 23 22 24 27 28 29 29 28 26 26 28 30 30 27 25 26 24 20 19 15 19 18 18 23 23 24 23 23 23 22 23 23 24 24 24 24 26 23
16 25 26 28 30 27 24 24 25 27 29 27 28 28 28 29 31 32 30 28 25 22 20 22 16 22 18 19 20 23 24 25 24 23 23 24 23 25 26 25 23 25 25
5 8 15 24 26 27 25 24 23 22 23 22 23 22 23 23 23 27 27 25 22 20 20 20 22 23 21 18 19 21 22 24 23 24 24 24 23 24 24 22 21 23 24
2 1 5 12 23 29 25 23 20 19 19 19 19 19 19 20 18 16 17 18 17 17 15 14 13 15 16 17 18 21 23 25 24 23 23 24 24 23 23 19 18 20 24
3 2 1 2 10 16 20 20 20 20 19 18 17 16 16 15 14 14 15 15 15 14 12 13 14 17 22 25 30 30 28 27 25 24 25 24 24 23 21 20 20 21 22
6 6 6 4 6 10 14 19 22 22 21 20 19 17 16 15 15 14 14 13 14 14 14 18 21 24 25 26 24 24 25 26 25 24 24 23 24 23 22 21 21 21 24
5 5 3 3 2 3 7 13 18 20 21 21 20 18 17 16 17 17 17 14 16 19 18 22 26 22 20 21 23 24 24 24 24 23 22 22 23 23 22 23 22 20 20
6 7 7 4 4 6 6 8 12 19 21 21 22 20 19 20 20 20 20 19 18 19 21 18 16 17 19 20 22 23 23 23 23 22 21 21 19 17 18 19 18 17 17
11 12 13 14 14 13 12 11 12 15 20 22 23 21 21 22 21 21 22 20 18 16 14 14 15 16 19 21 22 23 22 22 21 18 17 15 15 15 16 16 13 15 14
13 12 14 17 18 18 15 15 14 14 18 20 21 23 23 24 23 22 19 16 15 13 13 14 16 17 18 21 23 23 21 17 15 14 13 13 14 13 13 12 11 13 13
15 15 15 16 18 20 20 20 20 17 17 20 21 21 21 20 20 19 16 16 15 14 14 15 16 18 19 21 22 21 16 13 11 11 11 12 11 11 12 12 12 13 13
13 15 15 17 20 21 21 21 23 21 17 19 20 20 20 19 18 17 16 15 14 13 14 16 18 19 18 18 16 17 14 12 10 10 11 11 12 12 11 11 11 11 12
10 14 15 17 20 19 18 19 23 23 19 19 20 19 18 18 17 15 15 14 14 15 17 18 18 18 17 15 15 17 13 11 10 11 11 12 12 12 12 11 12 11 9
9 11 12 13 13 14 18 20 20 21 18 16 17 18 17 17 15 16 16 15 16 17 17 17 17 17 15 14 14 16 12 9 10 10 10 11 12 12 12 10 10 11 11
7 8 7 7 8 10 10 15 17 17 17 15 16 18 17 18 19 18 16 16 16 17 17 16 17 17 14 14 15 14 13 12 12 11 11 12 13 13 11 12 10 12 12
6 6 4 4 5 8 8 8 11 14 17 15 14 16 17 18 17 16 16 15 15 15 16 16 17 15 14 14 14 15 14 13 13 12 13 14 14 14 12 13 12 13 12
4 6 3 2 3 1 4 6 7 8 13 14 13 15 16 16 16 16 16 15 13 13 15 16 17 14 14 14 15 16 15 14 14 12 12 14 15 14 14 13 13 14 12
4 6 7 4 2 5 6 7 8 8 10 11 12 13 14 14 15 15 14 14 13 14 14 14 14 14 14 13 14 15 16 15 14 15 16 16 16 15 14 14 15 15 15
2 4 6 6 7 5 4 5 6 8 9 10 11 12 13 13 13 14 15 15 13 15 14 13 13 13 14 13 15 15 15 15 15 20 20 18 16 16 15 15 15 15 16
Wind_Direction
205 203 217 214 213 216 216 222 220 218 217 211 213 217 219 221 225 222 231 231 240 254 258 265 249 237 224 231 247 256 270 284 295 294 301 292 293 292 288 292 296 281 276
226 219 210 211 220 223 222 224 224 224 225 224 226 224 227 232 231 229 234 232 241 243 249 246 232 218 215 221 241 252 263 276 288 292 296 297 299 292 296 294 292 288 287
238 227 223 219 217 221 226 230 228 226 229 236 235 232 231 236 236 233 233 238 243 241 241 237 229 221 215 239 238 246 269 274 286 284 283 293 292 300 300 283 282 288 280
234 231 225 224 225 223 219 227 232 235 238 237 241 244 244 243 244 241 240 241 241 243 244 241 237 235 237 245 259 253 267 277 277 284 273 265 274 281 292 281 270 270 269
242 241 235 237 241 236 231 228 227 233 236 244 245 245 243 243 250 252 248 245 247 246 246 241 236 233 240 248 253 263 277 284 285 282 281 275 263 264 266 277 271 267 269
242 241 241 246 246 239 237 235 236 240 239 240 245 247 251 254 254 255 249 245 247 241 243 239 235 239 229 244 261 267 279 273 285 283 280 276 271 271 262 267 272 272 268
245 242 238 243 243 236 235 233 239 242 243 245 243 247 249 251 254 255 254 251 253 250 247 244 245 244 255 258 268 278 278 277 277 280 278 276 273 267 264 261 267 272 269
237 234 237 240 241 236 231 230 237 244 244 248 250 250 249 249 251 253 255 257 255 249 240 231 231 248 249 264 279 280 277 277 279 277 274 274 274 271 268 262 264 267 265
222 228 235 234 236 239 232 234 239 240 241 245 247 250 251 254 253 252 251 249 246 236 242 238 237 255 257 266 273 276 277 282 282 281 279 279 277 275 273 264 256 261 264
161 206 225 231 232 234 234 237 242 236 238 244 249 254 258 259 256 251 246 241 234 226 234 238 243 249 257 268 275 283 288 287 287 285 283 283 280 279 276 266 259 252 263
182 257 242 228 225 226 226 227 232 236 239 243 247 251 256 258 253 242 229 221 219 227 236 240 248 265 276 283 288 289 289 287 285 284 285 283 281 279 276 265 257 261 264
134 147 142 242 222 213 213 220 230 237 244 243 241 241 239 238 235 224 209 203 209 213 226 243 261 276 278 283 288 289 285 284 285 285 282 281 279 277 271 264 260 258 260
127 138 138 168 192 212 226 233 235 237 240 241 241 235 224 220 216 212 207 212 219 220 247 274 280 279 278 276 275 276 280 282 283 282 280 280 277 277 272 264 256 255 257
147 152 163 158 173 216 236 241 238 234 232 235 234 226 225 224 219 219 211 220 244 254 275 270 269 266 270 277 276 280 282 284 283 281 279 275 274 274 270 265 259 255 256
250 257 259 251 262 267 278 274 247 238 235 232 230 230 233 231 227 220 226 253 252 255 257 259 264 269 275 280 285 289 286 285 280 280 278 279 282 276 276 272 259 246 246
277 264 257 255 261 273 277 275 268 249 236 231 230 232 232 223 226 241 249 253 250 248 252 258 270 279 281 282 286 287 289 283 279 280 281 282 281 281 281 274 245 234 233
262 268 263 260 260 260 267 265 266 258 243 232 226 227 228 234 238 239 237 235 242 250 261 267 273 279 282 286 288 290 289 278 275 274 275 277 283 283 272 263 246 241 237
248 244 248 253 253 253 253 250 251 251 246 235 229 229 228 224 221 221 226 234 241 249 259 271 281 287 291 291 293 296 286 274 268 269 270 273 275 271 260 251 243 240 238
242 253 258 260 260 259 255 249 243 245 240 230 224 221 218 216 219 222 228 236 246 261 273 279 285 286 289 291 295 297 281 269 267 265 261 261 262 259 254 248 244 243 246
266 273 274 269 264 259 256 245 239 235 237 229 220 218 220 222 224 227 234 244 255 264 272 279 279 280 287 289 288 297 280 267 260 257 257 254 253 253 258 254 251 246 245
286 286 286 278 268 260 248 237 232 228 234 230 219 219 222 226 227 231 237 248 256 266 272 277 276 281 292 286 286 291 281 263 255 254 254 256 260 259 259 253 245 240 234
302 301 293 278 260 255 251 230 227 225 224 223 221 219 221 223 224 230 238 250 262 271 280 280 276 284 288 279 280 281 276 257 254 256 255 256 257 258 253 251 243 234 231
337 329 309 310 281 249 243 230 225 225 216 216 219 220 222 222 225 234 244 252 263 275 287 289 288 289 281 270 269 268 260 258 260 258 256 252 252 255 251 249 242 240 234
11 16 360 354 10 42 219 211 198 202 206 214 217 219 221 224 229 237 245 252 262 279 286 292 296 288 272 268 263 262 253 253 258 261 260 255 248 249 249 246 240 242 237
44 46 53 60 72 74 99 127 149 178 196 208 219 219 224 228 232 237 244 251 266 273 281 293 293 282 273 270 263 259 250 249 256 258 253 255 254 251 250 248 245 243 242
57 61 68 74 87 100 134 162 185 199 205 214 219 221 226 231 237 242 247 256 262 270 277 279 283 280 275 267 260 257 251 247 248 253 252 257 256 255 258 260 259 258 255
Height
1493 1495 1497 1501 1504 1506 1510 1514 1518 1518 1522 1523 1526 1530 1532 1535 1538 1540 1543 1546 1548 1551 1553 1554 1555 1555 1557 1559 1561 1562 1563 1563 1564 1564 1563 1563 1563 1563 1561 1559 1558 1556 1556
1489 1492 1497 1501 1501 1503 1505 1509 1512 1516 1518 1520 1523 1526 1528 1532 1535 1538 1539 1542 1545 1547 1549 1551 1552 1553 1553 1555 1556 1557 1558 1559 1561 1562 1560 1557 1559 1559 1557 1556 1555 1554 1555
1482 1487 1491 1494 1497 1499 1502 1505 1507 1510 1514 1516 1519 1521 1524 1527 1531 1533 1534 1537 1540 1542 1544 1547 1548 1550 1550 1552 1552 1553 1553 1554 1555 1559 1560 1557 1555 1556 1554 1553 1553 1552 1552
1477 1481 1486 1489 1492 1495 1498 1500 1504 1508 1510 1511 1515 1517 1519 1522 1525 1527 1531 1533 1535 1537 1539 1541 1543 1545 1547 1549 1551 1552 1551 1551 1550 1553 1555 1555 1555 1553 1553 1550 1549 1548 1548
1473 1476 1481 1485 1489 1492 1494 1497 1500 1503 1507 1512 1513 1516 1517 1519 1522 1524 1526 1529 1531 1532 1534 1536 1538 1541 1543 1545 1549 1549 1549 1548 1547 1547 1548 1548 1549 1549 1548 1546 1545 1545 1544
1467 1472 1476 1480 1485 1488 1490 1494 1497 1501 1505 1509 1510 1512 1515 1517 1519 1520 1522 1525 1526 1527 1529 1532 1533 1536 1538 1540 1541 1547 1546 1543 1542 1543 1542 1542 1542 1542 1542 1543 1542 1540 1540
1462 1466 1472 1476 1480 1483 1486 1491 1494 1497 1500 1503 1505 1507 1510 1514 1515 1517 1518 1520 1521 1523 1525 1527 1531 1535 1537 1538 1540 1542 1542 1541 1539 1536 1538 1537 1537 1537 1537 1538 1537 1535 1535
1453 1461 1467 1471 1475 1479 1482 1486 1490 1492 1494 1498 1501 1502 1504 1508 1510 1512 1514 1515 1518 1519 1521 1525 1528 1534 1531 1531 1535 1536 1538 1536 1535 1533 1532 1531 1532 1532 1532 1533 1534 1532 1530
1452 1458 1462 1466 1470 1475 1478 1482 1485 1488 1490 1494 1496 1498 1500 1503 1505 1507 1508 1510 1514 1516 1519 1522 1522 1528 1529 1528 1528 1530 1530 1532 1531 1529 1527 1526 1526 1527 1526 1526 1528 1529 1526
1452 1454 1456 1460 1466 1471 1475 1478 1481 1484 1486 1489 1492 1493 1495 1498 1500 1501 1503 1506 1509 1512 1515 1517 1519 1523 1525 1525 1525 1526 1526 1526 1525 1524 1522 1521 1521 1521 1521 1521 1522 1523 1522
1452 1454 1456 1459 1461 1466 1471 1474 1477 1480 1482 1485 1488 1490 1492 1494 1496 1498 1499 1502 1506 1510 1513 1515 1517 1519 1520 1520 1519 1519 1520 1520 1519 1518 1516 1516 1516 1515 1515 1516 1516 1518 1519
1456 1457 1458 1459 1461 1464 1468 1472 1475 1478 1479 1481 1485 1487 1489 1492 1495 1497 1498 1500 1503 1505 1509 1513 1513 1513 1515 1515 1514 1514 1515 1514 1513 1512 1511 1511 1511 1510 1509 1511 1511 1512 1513
1459 1459 1461 1462 1463 1466 1468 1471 1473 1475 1477 1479 1480 1483 1486 1490 1493 1497 1499 1501 1502 1503 1504 1507 1509 1508 1509 1510 1510 1509 1509 1508 1508 1506 1506 1505 1506 1504 1504 1504 1505 1506 1508
1459 1461 1462 1462 1463 1464 1466 1467 1469 1471 1473 1476 1479 1481 1484 1488 1492 1495 1497 1498 1499 1501 1501 1502 1504 1505 1505 1506 1506 1504 1503 1502 1502 1501 1499 1500 1499 1499 1498 1499 1499 1499 1502
1459 1460 1461 1462 1462 1463 1464 1464 1466 1469 1470 1472 1475 1478 1482 1486 1489 1492 1494 1495 1496 1497 1498 1499 1500 1501 1501 1501 1499 1497 1497 1496 1496 1494 1494 1494 1492 1494 1494 1493 1493 1495 1496
1456 1456 1457 1459 1460 1461 1462 1463 1464 1465 1467 1468 1471 1476 1479 1482 1485 1487 1489 1491 1493 1493 1494 1495 1497 1496 1496 1496 1494 1494 1492 1491 1490 1489 1490 1490 1490 1489 1490 1491 1489 1491 1492
1454 1454 1454 1455 1456 1458 1460 1461 1462 1462 1462 1465 1468 1472 1475 1478 1480 1483 1486 1488 1489 1489 1490 1492 1493 1493 1493 1491 1490 1488 1487 1486 1485 1485 1486 1487 1487 1486 1487 1489 1488 1489 1489
1452 1452 1452 1452 1453 1454 1455 1457 1457 1457 1459 1461 1464 1467 1470 1473 1476 1479 1482 1484 1486 1487 1488 1488 1488 1488 1487 1486 1484 1482 1481 1482 1482 1482 1482 1483 1484 1484 1486 1486 1485 1487 1486
1448 1449 1448 1447 1447 1448 1449 1450 1451 1452 1454 1457 1460 1464 1467 1470 1473 1476 1479 1481 1483 1484 1484 1484 1484 1484 1483 1482 1480 1478 1478 1478 1478 1479 1480 1481 1482 1483 1483 1483 1484 1484 1485
1445 1444 1442 1441 1441 1442 1442 1443 1444 1447 1450 1453 1457 1461 1464 1467 1470 1474 1476 1478 1479 1480 1480 1481 1480 1479 1479 1479 1478 1476 1474 1474 1475 1476 1477 1479 1480 1481 1481 1481 1482 1482 1483
1440 1439 1437 1436 1436 1436 1436 1437 1440 1443 1448 1451 1455 1458 1461 1465 1468 1471 1473 1475 1476 1476 1477 1476 1476 1475 1475 1475 1474 1473 1472 1472 1473 1474 1476 1477 1478 1478 1479 1479 1479 1480 1481
1438 1436 1434 1433 1432 1432 1433 1434 1437 1441 1446 1449 1452 1455 1458 1462 1465 1468 1469 1470 1471 1472 1472 1471 1471 1471 1471 1471 1471 1470 1470 1470 1471 1472 1473 1474 1475 1476 1476 1477 1477 1477 1478
1436 1433 1432 1431 1430 1430 1431 1432 1434 1438 1443 1447 1450 1453 1456 1458 1461 1464 1465 1466 1467 1467 1468 1467 1466 1467 1467 1467 1467 1467 1467 1468 1468 1469 1470 1471 1472 1473 1473 1474 1474 1474 1475
1435 1433 1431 1431 1430 1429 1430 1431 1433 1436 1441 1445 1447 1450 1453 1456 1457 1459 1461 1463 1463 1463 1464 1463 1462 1462 1462 1462 1463 1463 1464 1465 1465 1466 1467 1467 1468 1469 1470 1471 1472 1472 1473
1435 1433 1432 1431 1431 1431 1431 1432 1434 1437 1440 1443 1446 1448 1450 1452 1454 1456 1458 1459 1459 1459 1459 1459 1459 1458 1458 1459 1459 1459 1460 1461 1462 1462 1463 1464 1465 1466 1467 1468 1469 1470 1470
1436 1434 1433 1433 1432 1433 1433 1434 1436 1438 1439 1441 1443 1445 1447 1450 1451 1453 1454 1454 1455 1455 1455 1455 1455 1455 1454 1454 1455 1455 1456 1457 1458 1458 1459 1461 1463 1463 1464 1465 1465 1466 1467